Location: Colle Santa Colomba
(42.0333°N, 12.5667°E)
Time: 20:43:15
(UTC+00:00)

Cosmos 1602 Rocket - Pass Details

Date: 25 October 2021
Orbit: 603 x 633 km, 82.5° (Epoch: 04 December)

Event Time Altitude Azimuth Distance (km) Brightness Sun altitude
Rises 18:03:15 0° 346° (NNW) 2,879 7.2 -21.1°
Reaches altitude 10° 18:05:32 10° 341° (NNW) 1,966 6.4 -21.5°
Maximum altitude 18:09:42 48° 267° (W) 795 4.5 -22.3°
Drops below altitude 10° 18:13:50 10° 193° (SSW) 1,942 6.2 -23.1°
Sets 18:16:05 0° 188° (S) 2,840 7.0 -23.5°
